星链-2157 (STARLINK-2157 )

导读 | 豆包AI

STARLINK-2157是美国SpaceX公司星链(Starlink)卫星互联网项目的一员,于2021年3月4日发射升空。星链项目旨在通过低轨卫星星座为全球提供高速互联网接入,尤其服务偏远地区。作为初代组网卫星,它承担互联网接入任务,为星链移动服务的早期覆盖提供支撑,目前该卫星已在轨运行近五年,助力星链逐步实现全球互联的组网目标。

基本信息
目录编号:
47743
目录名称:
STARLINK-2157
国际标识:
2021-017X
轨道中心:
EARTH
卫星名称:
星链-2157
卫星全名:
星链-2157 (STARLINK-2157 )
卫星状态:
已陨落 最后检测时间 2025-01-12
发射日期:
2021-03-04 UTC
国别 :
美国 (US)
星等 :
--
轨道信息
数据来源 国际轨道数据
星历时间: 2025-01-12T18:39:33+0800
轨道信息已过期473天
半长轴: 6536.965km
偏心率: 0.0002611
轨道倾角: 53.026°
近地点辐角 265.067°
升交点赤经 268.798°
平近点角 243.306°
近地点: 157.123km
远地点: 160.537km
周期: 87.665分钟
每日圈数: 16.426257
详细信息
固有亮度:
5
最大亮度:
2.5
卫星平台:
Starlink V1.0
覆盖范围:
全球
运营商:
太空探索技术公司
运营商所在国:
美国
制造商(研发单位):
太空探索技术公司
制造商所在国:
美国
使用方式:
暂无
卫星简介
星链(Starlink)计划是由太空探索技术公司(SpaceX)提出的一个巨型低轨卫星互联网星座项目,计划在2019年至2024年间在太空搭建由约1.2万颗卫星组成的“星链”网络,其中1584颗将部署在地球上空550千米处的近地轨道,并从2020年开始工作。该卫星仍在工作。